Date,TemperatureHighF,TemperatureAvgF,TemperatureLowF,DewpointHighF,DewpointAvgF,DewpointLowF,HumidityHigh,HumidityAvg,HumidityLow,PressureMaxIn,PressureMinIn,WindSpeedMaxMPH,WindSpeedAvgMPH,GustSpeedMaxMPH,PrecipitationSumIn
2014-3-1,7.1,-2.0,-7.0,0.0,-12.3,-21.0,73,61,50,30.59,30.24,12,6,16,0.00
2014-3-2,5.3,-5.1,-16.0,-7.0,-16.6,-24.0,67,57,44,30.64,30.57,12,3,17,0.00
2014-3-3,9.6,-2.4,-20.0,4.5,-9.7,-25.0,92,70,53,30.62,30.33,9,2,12,0.00
2014-3-4,17.7,11.2,5.7,8.3,4.8,1.7,92,75,62,30.37,30.24,6,1,8,0.01
2014-3-5,23.9,15.4,7.4,11.6,6.2,1.1,77,67,56,30.53,30.36,14,5,15,0.00
2014-3-6,29.0,19.7,7.0,21.7,13.6,0.3,84,77,68,30.39,29.86,23,10,32,0.00
2014-3-7,32.0,27.6,23.0,29.1,23.3,16.7,90,84,73,30.21,29.79,15,6,20,0.00
2014-3-8,30.6,21.6,11.7,16.8,12.4,8.0,92,69,45,30.36,30.19,10,3,13,0.00
2014-3-9,45.1,31.6,14.1,34.4,24.3,10.6,87,75,58,30.19,29.66,17,6,21,0.01
2014-3-10,55.0,44.2,36.0,38.1,34.3,32.0,87,70,44,29.67,29.58,13,4,15,0.00
2014-3-11,42.9,38.1,30.3,32.5,26.4,18.4,78,63,41,30.00,29.67,15,5,20,0.00
2014-3-12,30.3,22.3,13.9,20.1,10.8,7.0,75,61,44,30.16,30.00,12,4,19,0.00
2014-3-13,48.8,33.7,15.7,36.1,25.9,7.6,85,74,57,30.05,29.50,13,6,18,0.00
2014-3-14,42.2,36.7,25.3,36.4,29.1,17.8,84,74,60,29.95,29.48,23,7,29,0.00
2014-3-15,30.0,23.1,15.2,17.5,12.7,5.6,85,65,51,30.46,29.95,11,2,12,0.00
2014-3-16,25.8,16.7,6.7,11.2,4.1,-1.0,69,58,42,30.54,30.06,11,4,15,0.00
2014-3-17,33.5,25.9,20.9,25.4,19.1,11.6,84,76,67,30.06,29.62,19,8,25,0.00
2014-3-18,36.1,30.0,25.7,28.0,24.6,20.4,94,81,69,29.83,29.68,10,4,15,0.04
2014-3-19,35.0,30.1,25.2,26.4,24.5,22.1,94,80,63,29.98,29.80,14,6,17,0.10
2014-3-20,44.2,33.2,21.9,32.1,26.4,19.1,92,77,56,30.03,29.91,11,2,11,0.02
2014-3-21,42.7,33.2,20.8,34.8,27.6,14.7,91,80,70,30.15,29.71,26,8,28,0.03
2014-3-22,20.8,13.4,5.8,14.8,4.3,-1.0,78,67,54,30.54,30.15,19,7,24,0.00
2014-3-23,24.3,13.6,2.7,10.4,4.6,-1.0,88,68,49,30.57,30.40,10,3,15,0.00
2014-3-24,31.2,17.9,4.5,21.5,10.3,1.2,92,74,45,30.41,30.13,16,3,22,0.02
2014-3-25,22.7,14.8,6.6,15.7,3.1,-2.0,80,59,48,30.32,30.14,18,6,23,0.00
2014-3-26,37.7,23.1,5.3,26.8,14.3,1.7,86,70,54,30.21,29.63,18,7,26,0.00
2014-3-27,39.9,35.4,29.1,36.2,32.6,26.6,95,90,64,29.74,29.48,20,6,27,0.17
2014-3-28,38.3,30.3,21.5,27.3,20.9,13.1,92,69,47,30.27,29.74,14,3,19,0.34
2014-3-29,42.6,30.0,13.4,27.9,17.8,10.3,90,64,35,30.31,30.10,12,3,15,0.00
2014-3-30,54.0,43.7,33.7,40.3,34.5,26.4,79,70,59,30.10,29.79,20,6,26,0.00
2014-3-31,49.8,44.5,34.4,44.4,37.4,29.7,88,76,70,29.79,29.33,15,7,25,0.02